User: anonymous   Login
Location: PACMO
(41.3967°N, 90.3760°W)
Time: 02:00:58
(UTC-06:00)
Language:

BREEZE-M DEB (TANK) - Orbit

View from above orbital plane
View from above orbital plane
View from above satellite
View from above satellite

Ground track
Ground track

The orbit data is extracted from the following two-line orbital elements,

1 31863U 07032B   17019.56836857  .00000265  00000-0  20384-3 0  9992
2 31863  45.9475 103.2839 4978730 239.7358  62.0166  5.52050718191317
Epoch (UTC): 19 January 2017 13:38:27
Eccentricity: 0.4978730
inclination: 45.9475°
perigee height: 412 km
apogee height: 13878 km
right ascension of ascending node: 103.2839°
argument of perigee: 239.7358°
revolutions per day: 5.52050718
mean anomaly at epoch: 62.0166°
orbit number at epoch: 19131

The dashed part of the orbit path shows where the satellite is in the earth's shadow,  

DLR